[[{"header":{"parameterUnit":"m.s-1","parameterCategory":1,"la1":30.2991,"la2":30.254,"lo1":-89.0895,"lo2":-89.0444,"dy":0.0017,"dx":0.0017,"nx":28,"ny":28,"refTime":"2024-06-20T03:00:00:Z","depth":0,"parameterNumber":2,"parameterNumberName":"U-component_of_WINDS"},"data":[0,0,0,0,0,0,0,0,0,0,0,0,0,0,0,0,0,0,0,0,0,0,0,0,0,0,0,0,0,0,0,0,0,0,0,0,0,0,0,0,0,0,0,0,0,0,0,0,0,0,0,0,0,0,0,0,0,0,-3.4824,-3.4824,0,-3.4747,-3.4746,-3.4745,-3.4609,-3.4607,-3.4604,-3.4602,-3.4524,-3.4524,-3.4525,0,0,0,0,0,0,0,0,0,0,0,0,0,-3.4857,-3.4857,-3.4825,-3.4824,-3.4823,-3.4747,-3.4746,-3.4745,-3.461,-3.4607,-3.4604,-3.4601,-3.4524,-3.4524,-3.4525,0,0,0,0,0,0,0,0,0,0,0,0,0,-3.4818,-3.4857,-3.4825,-3.4746,-3.4738,-3.4747,-3.4746,-3.4745,-3.4611,-3.4607,-3.4603,-3.4599,-3.4524,-3.4524,-3.4525,-3.4605,0,0,-3.4526,-3.4526,0,0,0,0,0,0,0,0,-3.482,-3.4817,-3.4758,-3.4751,-3.4743,-3.4684,-3.4729,-3.4698,-3.4611,-3.4659,-3.4602,-3.4597,-3.458,-3.4576,-3.457,-3.4601,-3.4598,-3.4526,-3.4526,-3.4527,-3.4527,0,0,0,0,0,0,0,-3.4823,-3.4819,-3.4794,-3.4758,-3.4748,-3.4715,-3.4705,-3.4722,-3.4642,-3.4655,-3.4645,-3.4637,-3.4575,-3.457,-3.4567,-3.4597,-3.4526,-3.4527,-3.4527,-3.4527,-3.469,-3.4694,0,0,0,0,0,0,-3.4837,-3.4822,-3.4796,-3.4791,-3.4773,-3.4718,-3.4707,-3.4707,-3.4642,-3.4628,-3.4641,-3.4631,-3.4571,-3.4567,-3.4564,-3.4652,-3.4527,-3.4527,-3.4527,-3.4686,-3.4691,-3.4695,0,0,0,0,0,0,-3.4838,-3.4836,-3.4799,-3.4804,-3.4797,-3.4721,-3.4722,-3.4707,-3.4701,-3.4631,-3.4616,-3.4649,-3.4568,-3.4563,-3.4596,-3.4648,-3.4527,-3.4528,-3.4681,-3.4687,-3.4693,-3.4831,0,0,0,0,0,0,-3.484,-3.4837,-3.4866,-3.4806,-3.4797,-3.4832,-3.4726,-3.4708,-3.4702,-3.4689,-3.4636,-3.4623,-3.4564,-3.4596,-3.4596,-3.4646,-3.4528,-3.4676,-3.4684,-3.4691,-3.4822,-3.4841,-3.4858,0,0,0,0,0,-3.4841,-3.4909,-3.4869,-3.4866,-3.4832,-3.4835,-3.4831,-3.4761,-3.4707,-3.4736,-3.4691,-3.4625,-3.4643,-3.46,-3.4599,-3.4651,-3.4672,-3.4682,-3.469,-3.4814,-3.4838,-3.4858,0,0,0,0,0,0,-3.4978,-3.4899,-3.4854,-3.4904,-3.4877,-3.4813,-3.4846,-3.4789,-3.4778,-3.4766,-3.4681,-3.467,-3.4713,-3.4686,-3.4639,-3.4725,-3.4647,-3.4657,-3.4741,-3.4763,-3.4781,-3.4786,-3.4529,0,0,0,0,0,-3.5014,-3.5022,-3.4954,-3.5004,-3.4993,-3.4923,-3.4922,-3.4871,-3.484,-3.4828,-3.4786,-3.4759,-3.4758,-3.476,-3.4755,-3.4818,-3.4804,-3.4853,-3.4872,-3.4887,-3.4895,-3.4926,-3.4947,-3.4725,-3.4725,-3.4725,0,0,-3.5088,-3.5046,-3.5057,-3.5031,-3.5004,-3.5015,-3.4914,-3.4931,-3.4938,-3.4831,-3.4858,-3.4827,-3.4791,-3.4839,-3.4858,-3.4817,-3.4954,-3.4899,-3.4911,-3.4911,-3.4937,-3.4958,-3.4977,-3.4731,-3.473,-3.4729,0,0,-3.5227,-3.5198,-3.5236,-3.5212,-3.5173,-3.5126,-3.5135,-3.508,-3.5054,-3.5081,-3.5,-3.5009,-3.501,-3.4988,-3.4977,-3.5111,-3.5049,-3.5112,-3.5206,-3.5237,-3.5254,-3.5269,-3.5316,-3.5334,-3.5121,-3.5121,-3.5122,0,-3.5324,-3.5337,-3.5263,-3.5284,-3.5275,-3.5179,-3.5217,-3.5198,-3.5161,-3.5157,-3.5112,-3.5111,-3.5081,-3.5121,-3.5154,-3.5149,-3.5157,-3.5116,-3.5258,-3.5272,-3.5285,-3.5328,-3.5346,-3.5129,-3.5128,-3.5127,-3.5127,0,-3.5457,-3.5468,-3.5504,-3.5469,-3.5465,-3.5495,-3.5426,-3.543,-3.5381,-3.5339,-3.5367,-3.5328,-3.5313,-3.532,-3.5272,-3.5354,-3.533,-3.5273,-3.5193,-3.5315,-3.5354,-3.5371,-3.514,-3.5138,-3.5135,-3.5133,0,0,-3.5678,-3.5603,-3.5618,-3.5601,-3.5552,-3.5559,-3.5586,-3.5571,-3.5576,-3.5555,-3.5574,-3.5578,-3.5525,-3.5513,-3.5462,-3.5489,-3.5596,-3.5428,-3.5426,-3.5459,-3.5684,-3.5725,-3.5746,-3.5556,-3.5559,-3.5561,-3.5686,0,-3.5806,-3.5845,-3.578,-3.5835,-3.5843,-3.5754,-3.5777,-3.575,-3.5712,-3.5714,-3.5673,-3.5676,-3.5607,-3.5599,-3.5622,-3.5579,-3.564,-3.5569,-3.5573,-3.5574,-3.5582,-3.5766,-3.581,-3.5929,-3.5701,-3.5704,-3.5706,0,-3.596,-3.5945,-3.6001,-3.5949,-3.595,-3.5971,-3.5953,-3.5957,-3.5925,-3.5896,-3.5883,-3.5823,-3.5845,-3.577,-3.58,-3.5753,-3.5751,-3.573,-3.5733,-3.5729,-3.5645,-3.5765,-3.5966,-3.5983,-3.5729,-3.5727,-3.5726,0,-3.6113,-3.6108,-3.614,-3.6129,-3.6069,-3.6086,-3.6063,-3.6027,-3.6023,-3.6008,-3.6004,-3.5993,-3.5986,-3.5979,-3.5917,-3.5868,-3.5954,-3.5873,-3.5929,-3.5931,-3.5949,-3.5948,-3.6151,-3.5953,-3.5952,-3.5952,-3.5952,0,-3.6261,-3.6298,-3.6208,-3.6227,-3.6267,-3.6193,-3.6234,-3.6201,-3.617,-3.6182,-3.6105,-3.6118,-3.6037,-3.6042,-3.5994,-3.6025,-3.6023,-3.6,-3.5986,-3.6005,-3.6008,-3.6001,-3.599,-3.5957,-3.5956,-3.5955,-3.5954,0,-3.6438,-3.6379,-3.6408,-3.635,-3.6336,-3.6368,-3.6318,-3.6334,-3.6292,-3.6309,-3.6308,-3.6243,-3.6244,-3.6183,-3.6172,-3.614,-3.6191,-3.6164,-3.6202,-3.6192,-3.6251,-3.6245,-3.6453,-3.6476,-3.6266,-3.6268,-3.627,0,-3.6535,-3.6561,-3.6507,-3.6509,-3.6489,-3.6494,-3.6489,-3.6419,-3.6417,-3.6383,-3.6404,-3.6399,-3.6391,-3.6397,-3.6349,-3.634,-3.6311,-3.6384,-3.6309,-3.6327,-3.6309,-3.6308,-3.631,-3.6399,-3.6402,-3.6404,-3.6406,0,-3.6713,-3.6683,-3.6679,-3.6666,-3.6663,-3.6649,-3.663,-3.6637,-3.6559,-3.6562,-3.6562,-3.6556,-3.6545,-3.6541,-3.6524,-3.6499,-3.644,-3.6431,-3.6443,-3.6461,-3.6482,-3.647,-3.6243,-3.6426,-3.6424,-3.6422,-3.6421,-3.642,-3.6851,-3.6871,-3.6835,-3.6834,-3.6812,-3.6797,-3.6809,-3.6769,-3.6768,-3.6753,-3.6712,-3.6719,-3.6687,-3.6657,-3.6639,-3.6644,-3.6607,-3.6625,-3.6629,-3.6634,-3.6645,-3.6483,-3.6641,-3.664,-3.6639,-3.6639,-3.6638,0,-3.7024,-3.6997,-3.6997,-3.6973,-3.6972,-3.6917,-3.6894,-3.6897,-3.6904,-3.688,-3.6874,-3.6874,-3.687,-3.6823,-3.6813,-3.6826,-3.6799,-3.6826,-3.6823,-3.6818,-3.6679,-3.6668,-3.6848,-3.6848,-3.6848,-3.6848,-3.6848,-3.6848,-3.7114,-3.7143,-3.7109,-3.7127,-3.71,-3.7106,-3.7097,-3.7083,-3.7063,-3.7067,-3.7063,-3.7032,-3.6998,-3.6986,-3.698,-3.6966,-3.6965,-3.7001,-3.6978,-3.6848,-3.6828,-3.6809,-3.6798,-3.7002,-3.7003,-3.7116,-3.7118,-3.7118]},{"header":{"parameterUnit":"m.s-1","parameterCategory":1,"la1":30.2991,"la2":30.254,"lo1":-89.0895,"lo2":-89.0444,"dy":0.0017,"dx":0.0017,"nx":28,"ny":28,"refTime":"2024-06-20T03:00:00:Z","depth":0,"parameterNumber":3,"parameterNumberName":"V-component_of_WINDS"},"data":[0,0,0,0,0,0,0,0,0,0,0,0,0,0,0,0,0,0,0,0,0,0,0,0,0,0,0,0,0,0,0,0,0,0,0,0,0,0,0,0,0,0,0,0,0,0,0,0,0,0,0,0,0,0,0,0,0,0,2.8266,2.8265,0,2.824,2.824,2.824,2.8252,2.8252,2.8253,2.8254,2.822,2.8219,2.8217,0,0,0,0,0,0,0,0,0,0,0,0,0,2.8319,2.8318,2.8266,2.8265,2.8265,2.824,2.824,2.824,2.8252,2.8252,2.8253,2.8254,2.8221,2.8219,2.8217,0,0,0,0,0,0,0,0,0,0,0,0,0,2.8295,2.8317,2.8266,2.8268,2.8268,2.824,2.824,2.8239,2.8251,2.8252,2.8253,2.8254,2.8221,2.8219,2.8217,2.8183,0,0,2.821,2.8209,0,0,0,0,0,0,0,0,2.8296,2.8293,2.8268,2.8268,2.8268,2.825,2.8246,2.822,2.8251,2.8258,2.8254,2.8255,2.8229,2.8226,2.8219,2.8181,2.818,2.821,2.8208,2.8207,2.8207,0,0,0,0,0,0,0,2.8298,2.8294,2.8255,2.8268,2.8268,2.8269,2.8266,2.8241,2.8238,2.8257,2.8258,2.8255,2.8229,2.8221,2.8218,2.8179,2.821,2.8208,2.8206,2.8205,2.8112,2.8111,0,0,0,0,0,0,2.83,2.8295,2.8256,2.8255,2.8285,2.8267,2.8264,2.8255,2.8238,2.8237,2.8254,2.8256,2.8224,2.8221,2.8217,2.8176,2.8207,2.8205,2.8204,2.8113,2.8112,2.8111,0,0,0,0,0,0,2.8301,2.8296,2.8257,2.8275,2.827,2.8265,2.8254,2.8254,2.8246,2.8236,2.8235,2.8247,2.8225,2.822,2.8192,2.8175,2.8204,2.8202,2.8115,2.8113,2.8111,2.8093,0,0,0,0,0,0,2.8303,2.8297,2.8285,2.8275,2.8269,2.8234,2.8253,2.8253,2.8243,2.8245,2.8229,2.8227,2.8225,2.8195,2.819,2.8172,2.82,2.8116,2.8114,2.8112,2.8095,2.8091,2.8087,0,0,0,0,0,2.8304,2.8279,2.8284,2.828,2.8255,2.8233,2.823,2.823,2.8242,2.8229,2.8223,2.8228,2.8178,2.8192,2.8186,2.8167,2.8117,2.8115,2.8112,2.8097,2.8092,2.8087,0,0,0,0,0,0,2.8284,2.8278,2.8283,2.8255,2.8245,2.8235,2.8219,2.8225,2.8209,2.8211,2.821,2.8207,2.8177,2.817,2.8185,2.8134,2.8149,2.8145,2.8139,2.8135,2.8131,2.8132,2.8199,0,0,0,0,0,2.8277,2.8262,2.8257,2.8231,2.8227,2.8224,2.8214,2.8216,2.8204,2.8199,2.8191,2.8178,2.8159,2.8147,2.8129,2.8095,2.8091,2.8079,2.8075,2.8072,2.8068,2.8049,2.8043,2.8103,2.8103,2.8103,0,0,2.8261,2.8256,2.8245,2.8227,2.822,2.8202,2.822,2.82,2.8187,2.8196,2.8169,2.8162,2.8148,2.8116,2.8102,2.8109,2.8051,2.8069,2.8067,2.8064,2.8046,2.804,2.8035,2.8101,2.8101,2.8102,0,0,2.8222,2.8218,2.8196,2.8189,2.8179,2.8177,2.8172,2.8163,2.8159,2.8133,2.814,2.8123,2.8091,2.808,2.807,2.803,2.8034,2.8024,2.8003,2.7984,2.7979,2.7975,2.7959,2.7954,2.8021,2.802,2.802,0,2.8202,2.8179,2.8184,2.8165,2.8156,2.8166,2.8144,2.8136,2.8119,2.8112,2.8121,2.8082,2.8073,2.8039,2.8029,2.8022,2.8014,2.8025,2.798,2.7976,2.7972,2.7957,2.7951,2.8019,2.8019,2.802,2.802,0,2.8154,2.8138,2.8122,2.8108,2.8098,2.8077,2.8077,2.8066,2.8069,2.8066,2.8039,2.8029,2.8009,2.8002,2.8003,2.7968,2.7972,2.7981,2.7996,2.7965,2.7951,2.7945,2.8018,2.8018,2.8018,2.8019,0,0,2.81,2.8092,2.8085,2.8079,2.807,2.8056,2.8035,2.8019,2.8009,2.7997,2.7978,2.7953,2.7961,2.795,2.7951,2.7935,2.7902,2.7945,2.7945,2.7936,2.7861,2.7853,2.7847,2.7906,2.7905,2.7904,2.7862,0,2.8059,2.8026,2.803,2.7997,2.7981,2.7992,2.7974,2.7965,2.7962,2.7947,2.7943,2.7924,2.7937,2.7931,2.7916,2.7909,2.7887,2.7913,2.7886,2.7885,2.7887,2.7839,2.7831,2.7791,2.7856,2.7855,2.7855,0,2.8007,2.7997,2.7963,2.7956,2.795,2.7933,2.7919,2.7905,2.7895,2.7894,2.7883,2.7887,2.7865,2.7882,2.785,2.7868,2.7858,2.7853,2.7851,2.7847,2.7866,2.7832,2.7779,2.7772,2.7846,2.7847,2.7847,0,2.7969,2.7947,2.7923,2.7918,2.791,2.7899,2.7894,2.7886,2.7876,2.7863,2.7856,2.784,2.783,2.7817,2.7816,2.7829,2.7783,2.78,2.7779,2.7779,2.7767,2.7767,2.7709,2.7764,2.7764,2.7764,2.7764,0,2.7922,2.79,2.7906,2.7891,2.7867,2.7873,2.7848,2.7845,2.7837,2.782,2.7829,2.7812,2.7813,2.7796,2.7795,2.7768,2.7764,2.7761,2.776,2.7759,2.7759,2.775,2.7752,2.7762,2.7763,2.7763,2.7763,0,2.7874,2.7878,2.7853,2.7849,2.7847,2.7829,2.7825,2.781,2.7809,2.7788,2.7784,2.7781,2.7762,2.7761,2.7737,2.7737,2.7703,2.7707,2.7707,2.7707,2.7686,2.7687,2.7618,2.7609,2.7671,2.7671,2.767,0,2.7843,2.7827,2.7822,2.7813,2.7809,2.7794,2.7785,2.779,2.778,2.7768,2.7754,2.7737,2.7722,2.7691,2.7685,2.7668,2.767,2.7647,2.7667,2.7666,2.7667,2.7667,2.7665,2.7642,2.7641,2.7641,2.764,0,2.7787,2.7791,2.7778,2.7767,2.7756,2.7747,2.7738,2.7729,2.7733,2.7721,2.7703,2.7692,2.7671,2.7652,2.7635,2.7629,2.7634,2.7635,2.7629,2.7626,2.7626,2.7624,2.7695,2.7636,2.7636,2.7636,2.7637,2.7637,2.7746,2.7732,2.7727,2.7713,2.7708,2.77,2.7686,2.7685,2.7671,2.7655,2.7658,2.7638,2.7628,2.7607,2.7599,2.7582,2.7589,2.758,2.7578,2.7575,2.7572,2.7631,2.7579,2.7579,2.7579,2.7579,2.7579,0,2.7689,2.7687,2.7674,2.7663,2.7652,2.7662,2.7653,2.7642,2.7625,2.7617,2.7604,2.7583,2.7566,2.756,2.7543,2.753,2.7532,2.7525,2.7525,2.7523,2.7567,2.7574,2.7524,2.7524,2.7524,2.7524,2.7524,2.7524,2.7658,2.7635,2.7638,2.7612,2.7609,2.7591,2.7585,2.7577,2.7571,2.7548,2.7535,2.7533,2.7525,2.7508,2.7492,2.749,2.7482,2.7474,2.7473,2.7514,2.752,2.7525,2.7531,2.7473,2.7473,2.743,2.743,2.743]}]]